Location: Marcé
(47.5801°N, 0.3280°W)
Time: 18:00:58
(UTC+01:00)

Tiros 1 despin weight - Pass Details

Date: 07 December 2021
Orbit: 592 x 641 km, 48.2° (Epoch: 21 January)

Event Time Altitude Azimuth Distance (km) Brightness Sun altitude
Rises 18:51:17 0° 283° (WNW) 2,826 ? -16.3°
Reaches altitude 10° 18:53:55 10° 269° (W) 1,922 ? -16.7°
Maximum altitude 18:57:22 23° 217° (SW) 1,284 ? -17.3°
Drops below altitude 10° 19:00:49 10° 166° (SSE) 1,922 ? -17.8°
Sets 19:03:28 0° 151° (SSE) 2,827 ? -18.3°
